Regional Weather Roundup
Issued by NWS

Home | Current Version | Previous Version | Text Only | Print | Product List | Glossary Off
Versions: 1 2 3 4 5 6 7 8 9 10 11 12 13 14 15 16 17 18 19 20 21 22 23 24 25 26 27 28 29 30 31 32 33 34 35 36 37 38 39 40 41 42 43 44 45 46 47 48 49 50

000
ASUS43 KFSD 201710
RWRSD

WEATHER ROUNDUP FOR SOUTH DAKOTA
NATIONAL WEATHER SERVICE SIOUX FALLS SD
1100 AM CST THU NOV 20 2014

NOTE: "FAIR" INDICATES FEW OR NO CLOUDS BELOW 12,000 FEET WITH NO
SIGNIFICANT WEATHER AND/OR OBSTRUCTIONS TO VISIBILITY.


SDZ001>005-009-010-012>017-201800-
NORTHWEST AND NORTH CENTRAL SOUTH DAKOTA

CITY           SKY/WX    TMP DP  RH WIND       PRES   REMARKS
BUFFALO          N/A     18  15  88 S10       29.90F WCI   6
FAITH            N/A     19  14  81 S14       30.03F WCI   6
MOBRIDGE       PTSUNNY   19  11  70 CALM      30.10F
$$

SDZ012>016-024>037-041>051-057-063-072>074-201800-
SOUTHWEST AND SOUTH CENTRAL SOUTH DAKOTA

CITY           SKY/WX    TMP DP  RH WIND       PRES   REMARKS
RAPID CTY ARPT MOSUNNY   20  16  84 SE6       29.99S WCI  12
PIERRE         CLOUDY    19  13  77 CALM      30.14S
CUSTER         SUNNY     38  13  35 W8        29.92F
ELLSWORTH AFB  SUNNY     24  22  94 SE5       29.97S WCI  18
PHILIP         SUNNY     21  13  71 SE8       30.09S WCI  11
PINE RIDGE     MOSUNNY   20  17  88 CALM      30.01F
SPEARFISH      FAIR      30  21  69 SE3       29.94S
WINNER         CLOUDY    22  13  68 E5        30.14S WCI  16
$$

SDZ004>011-016>023-039-040-201800-
NORTHEAST SOUTH DAKOTA

CITY           SKY/WX    TMP DP  RH WIND       PRES   REMARKS
ABERDEEN       MOSUNNY   14   5  67 NW5       30.18S WCI   6
WATERTOWN      SUNNY     10   4  76 W7        30.13R WCI  -1
SISSETON         N/A     13   5  70 NW9       30.16R WCI   1
$$

SDZ017-020-022-023-036>040-048>070-201800-
SOUTHEAST SOUTH DAKOTA

CITY           SKY/WX    TMP DP  RH WIND       PRES   REMARKS
SIOUX FALLS    MOSUNNY   17   9  70 W7        30.19R WCI   8
HURON          SUNNY     16   8  71 NW5       30.20R WCI   9
CHAMBERLAIN    CLOUDY    19  11  74 CALM      30.17S
MITCHELL       MOSUNNY   20  12  71 NW7       30.21S WCI  11
YANKTON        CLOUDY    21  12  68 NW3       30.23R
$$

ABBREVIATIONS USED IN REMARKS
   TC - TEMPERATURE IN CELSIUS
  WCI - WIND CHILL INDEX
   HX - HEAT INDEX
  VSB - VISIBILITY




USA.gov is the U.S. government's official web portal to all federal, state and local government web resources and services.